Location: ??????
(41.3164°N, 22.6615°E)
Time: 02:06:45
(UTC+00:00)

Cosmos 1727 Rocket - Pass Details

Date: 16 October 2021
Orbit: 960 x 997 km, 82.9° (Epoch: 02 December)

Event Time Altitude Azimuth Distance (km) Brightness Sun altitude
Rises 16:28:20 0° 354° (N) 3,681 7.0 -8.5°
Reaches altitude 10° 16:30:53 10° 356° (N) 2,725 6.4 -9.0°
Maximum altitude 16:37:07 75° 82° (E) 1,002 3.9 -10.2°
Drops below altitude 10° 16:43:16 10° 168° (SSE) 2,689 6.2 -11.3°
Sets 16:45:45 0° 169° (S) 3,629 6.9 -11.8°
